GW0232 Weather Reports


time (UTC)temp
F
wind
direction
speed
knots
gust
knots
rain 1hr
in
rain 24hr
in
rain mn
in
humidity
%
barometer
mb
20260507113026 31 256 0.0 0.9 0.00 0.00 0.00 80 1009.7
20260507111528 31 0 0.0 0.0 0.00 0.00 0.00 80 1009.9
20260507110031 32 0 0.0 0.0 0.00 0.00 0.00 79 1009.9
20260507104530 32 0 0.0 0.0 0.00 0.00 0.00 77 1009.8
20260507093030 34 0 0.0 0.0 0.00 0.00 0.00 76 1009.7
20260507083028 36 0 0.0 0.9 0.00 0.00 0.00 71 1009.8
20260507081527 36 0 0.0 0.9 0.00 0.00 0.00 71 1010.0
20260507080036 36 0 0.0 0.9 0.00 0.00 0.00 70 1010.0
20260507074528 37 0 0.0 0.9 0.00 0.00 0.00 69 1010.1
20260507073029 37 0 0.0 0.9 0.00 0.00 0.00 70 1010.1
20260507071556 38 253 0.0 0.9 0.00 0.00 0.00 69 1010.2
20260507070030 38 0 0.0 0.0 0.00 0.00 0.00 67 1010.3
20260507064527 38 0 0.0 0.9 0.00 0.00 0.00 66 1010.3
20260507063025 39 236 0.9 1.7 0.00 0.00 0.00 65 1010.2
20260507061529 40 240 0.0 0.9 0.00 0.00 0.00 62 1010.1
20260507060030 41 0 0.0 0.0 0.00 0.00 0.00 63 1010.2
20260507054526 41 0 0.0 0.9 0.00 0.00 0.00 64 1010.4
20260507053044 42 0 0.0 0.9 0.00 0.00 0.00 62 1010.4
20260507051538 42 241 0.0 0.9 0.00 0.00 0.00 62 1010.5
20260507050035 42 0 0.0 1.7 0.00 0.00 0.00 64 1010.7
20260507044529 42 251 0.9 1.7 0.00 0.00 0.00 68 1010.8
20260507043030 42 241 0.9 0.9 0.00 0.00 0.00 66 1011.0
20260507041529 42 252 0.9 1.7 0.00 0.00 0.00 65 1011.2
20260507040028 43 259 0.9 0.9 0.00 0.00 0.00 59 1011.3
20260507034535 43 243 0.0 2.6 0.00 0.00 0.00 60 1011.5
20260507033038 45 246 0.0 0.9 0.00 0.00 0.00 59 1011.4
20260507031527 46 232 0.0 0.9 0.00 0.00 0.00 59 1011.7
20260507030029 48 236 0.0 0.9 0.00 0.00 0.00 50 1011.9
20260507024533 49 229 0.0 1.7 0.00 0.00 0.00 45 1012.0
20260507023034 50 0 0.0 0.0 0.00 0.00 0.00 41 1011.9
20260507021528 51 0 0.0 0.0 0.00 0.00 0.00 38 1011.9
20260507020026 51 0 0.0 0.0 0.00 0.00 0.00 36 1011.9
20260507014529 52 0 0.0 0.0 0.00 0.00 0.00 34 1011.9
20260507013028 53 0 0.0 0.9 0.00 0.00 0.00 33 1011.9
20260507011533 54 0 0.0 0.9 0.00 0.00 0.00 34 1011.9
20260507010030 55 0 0.0 1.7 0.00 0.00 0.00 33 1012.1
20260507004536 55 0 0.0 1.7 0.00 0.00 0.00 33 1012.1
20260507003024 56 0 0.0 1.7 0.00 0.00 0.00 31 1012.5
20260507000030 57 0 0.9 2.6 0.00 0.00 0.00 30 1013.0
20260506234528 57 44 0.0 2.6 0.00 0.00 0.00 31 1013.1
20260506233026 57 323 0.0 2.6 0.00 0.00 0.00 31 1013.1
20260506231528 58 78 0.0 1.7 0.00 0.00 0.00 29 1013.1
20260506230028 57 311 0.0 4.3 0.00 0.00 0.00 31 1013.4
20260506224530 57 214 0.0 1.7 0.00 0.00 0.00 30 1013.5
20260506223029 57 69 0.0 2.6 0.00 0.00 0.00 32 1013.7
20260506221529 58 134 0.9 3.5 0.00 0.00 0.00 29 1013.8
20260506220034 58 61 0.9 4.3 0.00 0.00 0.00 31 1014.0
20260506214528 58 228 0.9 2.6 0.00 0.00 0.00 34 1014.3
20260506213032 59 252 0.9 3.5 0.00 0.00 0.00 33 1014.2
20260506211532 59 43 0.0 3.5 0.00 0.00 0.00 30 1014.5
20260506210027 60 270 0.9 4.3 0.00 0.00 0.00 30 1014.7
20260506204529 60 341 0.9 4.3 0.00 0.00 0.00 28 1014.9
20260506203029 59 10 0.9 4.3 0.00 0.00 0.00 30 1015.1
20260506201528 59 309 0.0 7.0 0.00 0.00 0.00 33 1015.4
20260506200027 60 102 0.9 3.5 0.00 0.00 0.00 33 1015.6
20260506194530 59 56 0.9 6.1 0.00 0.00 0.00 30 1015.8
20260506193026 61 214 0.9 5.2 0.00 0.00 0.00 33 1015.8
20260506191528 59 331 1.7 4.3 0.00 0.00 0.00 33 1015.9
20260506190028 59 169 0.9 6.1 0.00 0.00 0.00 33 1016.5
20260506184529 57 72 0.9 5.2 0.00 0.00 0.00 34 1016.9
20260506183028 58 58 0.9 7.0 0.00 0.00 0.00 35 1017.3
20260506181526 57 355 1.7 4.3 0.00 0.00 0.00 35 1017.6
20260506180030 57 210 1.7 8.7 0.00 0.00 0.00 33 1018.1
20260506174527 57 277 0.9 5.2 0.00 0.00 0.00 34 1018.5
20260506173028 56 58 0.9 4.3 0.00 0.00 0.00 36 1018.5
20260506171526 55 236 0.9 3.5 0.00 0.00 0.00 37 1018.9
20260506170028 55 90 0.9 4.3 0.00 0.00 0.00 37 1019.3
20260506164528 54 266 1.7 5.2 0.00 0.00 0.00 42 1019.4
20260506163026 53 313 1.7 5.2 0.00 0.00 0.00 41 1019.4
20260506161526 52 98 0.9 4.3 0.00 0.00 0.00 39 1019.3
20260506160027 52 304 0.9 5.2 0.00 0.00 0.00 44 1019.3
20260506154529 50 235 0.0 3.5 0.00 0.00 0.00 46 1019.3
20260506153028 49 103 1.7 4.3 0.00 0.00 0.00 42 1018.8
20260506151525 48 350 0.9 3.5 0.00 0.00 0.00 47 1018.8
20260506150025 46 221 0.0 1.7 0.00 0.00 0.00 52 1018.8
20260506144529 45 225 1.7 3.5 0.00 0.00 0.00 52 1019.1
20260506143030 45 329 0.0 1.7 0.00 0.00 0.00 57 1019.3
20260506141534 43 230 0.0 1.7 0.00 0.00 0.00 59 1019.2
20260506140028 38 134 0.9 2.6 0.00 0.00 0.00 66 1019.5
20260506134527 37 238 1.7 2.6 0.00 0.00 0.00 65 1019.7
20260506133025 35 81 0.0 2.6 0.00 0.00 0.00 70 1019.7
20260506131528 33 153 0.0 2.6 0.00 0.00 0.00 70 1019.6
20260506130028 33 234 0.9 2.6 0.00 0.00 0.00 70 1019.3
20260506124525 31 258 1.7 2.6 0.00 0.00 0.00 72 1018.9
20260506123025 31 258 0.9 1.7 0.00 0.00 0.00 71 1019.1
20260506121529 31 250 0.0 2.6 0.00 0.00 0.00 73 1018.8
20260506120030 29 0 0.0 0.9 0.00 0.00 0.00 75 1018.5
20260506114528 29 238 0.0 0.9 0.00 0.00 0.00 75 1018.3